TimeEDT,TemperatureF,Dew PointF,Humidity,Sea Level PressureIn,VisibilityMPH,Wind Direction,Wind SpeedMPH,Gust SpeedMPH,PrecipitationIn,Events,Conditions,WindDirDegrees,DateUTC
12:53 AM,64.0,37.9,38,30.15,10.0,SSE,6.9,-,N/A,,Clear,160,2013-05-03 04:53:00
1:53 AM,63.0,37.9,40,30.15,10.0,SSE,8.1,-,N/A,,Clear,160,2013-05-03 05:53:00
2:53 AM,61.0,37.9,42,30.14,10.0,SSE,8.1,-,N/A,,Clear,160,2013-05-03 06:53:00
3:53 AM,60.1,37.9,44,30.14,10.0,SSE,9.2,-,N/A,,Clear,150,2013-05-03 07:53:00
4:53 AM,59.0,37.9,46,30.14,10.0,SSE,9.2,-,N/A,,Clear,160,2013-05-03 08:53:00
5:53 AM,59.0,39.9,49,30.15,10.0,South,8.1,-,N/A,,Clear,170,2013-05-03 09:53:00
6:53 AM,57.0,42.1,57,30.17,10.0,SSE,8.1,-,N/A,,Clear,160,2013-05-03 10:53:00
7:53 AM,59.0,42.1,53,30.18,10.0,South,9.2,-,N/A,,Clear,170,2013-05-03 11:53:00
8:53 AM,62.1,44.1,52,30.18,10.0,SSE,11.5,-,N/A,,Clear,160,2013-05-03 12:53:00
9:53 AM,66.0,46.0,48,30.17,10.0,South,13.8,20.7,N/A,,Clear,170,2013-05-03 13:53:00
10:53 AM,68.0,45.0,43,30.16,10.0,South,12.7,-,N/A,,Clear,180,2013-05-03 14:53:00
11:53 AM,70.0,44.1,39,30.16,10.0,South,17.3,-,N/A,,Clear,170,2013-05-03 15:53:00
12:53 PM,75.0,37.0,25,30.14,10.0,SSE,15.0,26.5,N/A,,Clear,160,2013-05-03 16:53:00
1:53 PM,75.9,30.9,19,30.12,10.0,South,18.4,24.2,N/A,,Clear,170,2013-05-03 17:53:00
2:53 PM,75.9,32.0,20,30.11,10.0,SE,15.0,23.0,N/A,,Clear,140,2013-05-03 18:53:00
3:53 PM,77.0,36.0,23,30.09,10.0,South,15.0,20.7,N/A,,Clear,170,2013-05-03 19:53:00
4:53 PM,78.1,37.9,24,30.08,10.0,SSE,13.8,19.6,N/A,,Clear,160,2013-05-03 20:53:00
5:53 PM,77.0,36.0,23,30.07,10.0,SE,11.5,25.3,N/A,,Clear,140,2013-05-03 21:53:00
6:53 PM,75.9,37.0,24,30.07,10.0,SSE,11.5,20.7,N/A,,Clear,160,2013-05-03 22:53:00
7:53 PM,72.0,39.0,30,30.08,10.0,SSE,6.9,-,N/A,,Clear,150,2013-05-03 23:53:00
8:53 PM,70.0,39.0,32,30.09,10.0,SE,10.4,-,N/A,,Clear,130,2013-05-04 00:53:00
9:53 PM,70.0,42.1,36,30.09,10.0,SE,11.5,19.6,N/A,,Clear,130,2013-05-04 01:53:00
10:53 PM,69.1,42.1,38,30.10,10.0,SE,13.8,18.4,N/A,,Clear,140,2013-05-04 02:53:00
11:53 PM,66.9,43.0,42,30.11,10.0,SE,15.0,23.0,N/A,,Clear,140,2013-05-04 03:53:00